XNO180 EGKK-EGNS

Flight info

Callsign XNO180
Flight time 0h 49m
Altitude 34000
Route LAM L10 BPK UN601 LESTA UP6 RODOL UL28 AGLIL M146 LUSOD DCT IOM
Aircraft A320/M-SDE3FGHIRWY/LB1

Departure

Time 2026-05-06 19:39
Airport London Gatwick Airport (EGKK)

Arrival

Time 2026-05-06 20:28
Airport Isle of Man Airport (EGNS)
Time Latitude Longitude Altitude Speed Heading
2026-05-06 19:07 51.15759 -0.16709 208 ft 0 kts 346°
2026-05-06 19:26 51.15742 -0.16702 215 ft 4 kts 341°
2026-05-06 19:27 51.15718 -0.16685 213 ft 4 kts 324°
2026-05-06 19:27 51.15701 -0.16656 215 ft 4 kts 281°
2026-05-06 19:27 51.15700 -0.16636 214 ft 1 kts 258°
2026-05-06 19:27 51.15701 -0.16633 214 ft 0 kts 258°
2026-05-06 19:29 51.15700 -0.16636 214 ft 1 kts 258°
2026-05-06 19:30 51.15697 -0.16662 213 ft 5 kts 256°
2026-05-06 19:30 51.15685 -0.16747 209 ft 10 kts 257°
2026-05-06 19:30 51.15668 -0.16864 208 ft 12 kts 257°
2026-05-06 19:30 51.15650 -0.17001 209 ft 14 kts 258°
2026-05-06 19:31 51.15627 -0.17158 209 ft 16 kts 256°
2026-05-06 19:31 51.15601 -0.17336 214 ft 18 kts 255°
2026-05-06 19:31 51.15518 -0.17671 215 ft 18 kts 261°
2026-05-06 19:32 51.15493 -0.17843 205 ft 15 kts 258°
2026-05-06 19:32 51.15470 -0.18018 209 ft 17 kts 258°
2026-05-06 19:32 51.15450 -0.18161 213 ft 12 kts 257°
2026-05-06 19:32 51.15417 -0.18282 210 ft 11 kts 202°
2026-05-06 19:33 51.15336 -0.18261 205 ft 13 kts 169°
2026-05-06 19:33 51.15243 -0.18230 205 ft 10 kts 166°
2026-05-06 19:33 51.15187 -0.18269 212 ft 11 kts 249°
2026-05-06 19:33 51.15178 -0.18398 208 ft 13 kts 258°
2026-05-06 19:34 51.15152 -0.18577 209 ft 20 kts 256°
2026-05-06 19:34 51.15118 -0.18826 207 ft 25 kts 257°
2026-05-06 19:34 51.15083 -0.19088 215 ft 23 kts 258°
2026-05-06 19:34 51.15047 -0.19353 208 ft 26 kts 257°
2026-05-06 19:35 51.15008 -0.19627 210 ft 26 kts 256°
2026-05-06 19:35 51.14968 -0.19918 208 ft 28 kts 257°
2026-05-06 19:35 51.14925 -0.20224 213 ft 28 kts 257°
2026-05-06 19:35 51.14893 -0.20463 207 ft 20 kts 257°
2026-05-06 19:36 51.14861 -0.20696 208 ft 23 kts 257°
2026-05-06 19:36 51.14825 -0.20951 214 ft 25 kts 257°
2026-05-06 19:36 51.14784 -0.21221 210 ft 23 kts 252°
2026-05-06 19:36 51.14753 -0.21378 213 ft 13 kts 238°
2026-05-06 19:37 51.14670 -0.21380 208 ft 14 kts 147°
2026-05-06 19:37 51.14613 -0.21325 209 ft 14 kts 161°
2026-05-06 19:37 51.14533 -0.21239 212 ft 15 kts 129°
2026-05-06 19:37 51.14525 -0.21135 216 ft 0 kts 79°
2026-05-06 19:38 51.14525 -0.21134 215 ft 1 kts 79°
2026-05-06 19:38 51.14530 -0.21099 210 ft 15 kts 77°
2026-05-06 19:38 51.14606 -0.20551 211 ft 83 kts 77°
2026-05-06 19:38 51.14772 -0.19349 215 ft 133 kts 77°
2026-05-06 19:39 51.14991 -0.17777 462 ft 152 kts 78°
2026-05-06 19:39 51.15213 -0.16050 945 ft 164 kts 77°
2026-05-06 19:39 51.15435 -0.14183 1395 ft 180 kts 77°
2026-05-06 19:39 51.15666 -0.12143 1767 ft 199 kts 77°
2026-05-06 19:40 51.15927 -0.09796 2003 ft 227 kts 78°
2026-05-06 19:40 51.16376 -0.07297 2393 ft 247 kts 62°
2026-05-06 19:40 51.17344 -0.05016 3222 ft 252 kts 48°
2026-05-06 19:40 51.18480 -0.02850 4119 ft 257 kts 49°
2026-05-06 19:41 51.19604 -0.00589 4795 ft 264 kts 50°
2026-05-06 19:41 51.20739 0.01755 4970 ft 268 kts 51°
2026-05-06 19:41 51.21869 0.04123 4990 ft 269 kts 52°
2026-05-06 19:41 51.22999 0.06497 4994 ft 269 kts 51°
2026-05-06 19:42 51.24129 0.08870 4993 ft 268 kts 52°
2026-05-06 19:42 51.25154 0.11349 5212 ft 268 kts 51°
2026-05-06 19:42 51.26591 0.13188 5468 ft 267 kts 22°
2026-05-06 19:42 51.28396 0.13676 5919 ft 267 kts 352°
2026-05-06 19:43 51.30164 0.12749 6775 ft 270 kts 333°
2026-05-06 19:43 51.31887 0.11544 7636 ft 272 kts 338°
2026-05-06 19:43 51.33678 0.10553 8569 ft 274 kts 341°
2026-05-06 19:43 51.35508 0.09633 9396 ft 278 kts 342°
2026-05-06 19:44 51.37362 0.08724 10202 ft 281 kts 342°
2026-05-06 19:44 51.39309 0.07763 10479 ft 304 kts 341°
2026-05-06 19:44 51.41403 0.06713 10659 ft 327 kts 341°
2026-05-06 19:44 51.43646 0.05573 10798 ft 349 kts 341°
2026-05-06 19:45 51.45997 0.04368 11232 ft 358 kts 341°
2026-05-06 19:45 51.48386 0.03147 11853 ft 363 kts 341°
2026-05-06 19:45 51.50801 0.01910 12496 ft 366 kts 341°
2026-05-06 19:45 51.53235 0.00656 13144 ft 369 kts 341°
2026-05-06 19:46 51.55692 -0.00612 13793 ft 373 kts 341°
2026-05-06 19:46 51.58167 -0.01898 14371 ft 376 kts 341°
2026-05-06 19:46 51.60663 -0.03200 14945 ft 378 kts 341°
2026-05-06 19:46 51.63173 -0.04508 15501 ft 381 kts 341°
2026-05-06 19:47 51.65711 -0.05831 16040 ft 385 kts 341°
2026-05-06 19:47 51.68267 -0.07168 16561 ft 388 kts 341°
2026-05-06 19:47 51.70846 -0.08518 17104 ft 391 kts 341°
2026-05-06 19:47 51.73446 -0.09878 17652 ft 395 kts 340°
2026-05-06 19:48 51.75972 -0.11626 18173 ft 397 kts 330°
2026-05-06 19:48 51.78367 -0.13889 18664 ft 400 kts 328°
2026-05-06 19:48 51.80767 -0.16187 18970 ft 402 kts 328°
2026-05-06 19:48 51.83173 -0.18484 19021 ft 401 kts 328°
2026-05-06 19:49 51.85541 -0.20737 19029 ft 401 kts 328°
2026-05-06 19:49 51.87946 -0.23025 19029 ft 401 kts 328°
2026-05-06 19:49 51.90350 -0.25318 19029 ft 402 kts 328°
2026-05-06 19:49 51.92756 -0.27618 19029 ft 401 kts 328°
2026-05-06 19:50 51.95158 -0.29920 19033 ft 401 kts 328°
2026-05-06 19:50 51.97556 -0.32219 19030 ft 401 kts 328°
2026-05-06 19:50 51.99953 -0.34520 19029 ft 401 kts 328°
2026-05-06 19:50 52.02355 -0.36829 19028 ft 401 kts 328°
2026-05-06 19:51 52.04754 -0.39138 19031 ft 401 kts 328°
2026-05-06 19:51 52.07156 -0.41450 19025 ft 401 kts 328°
2026-05-06 19:51 52.09552 -0.43759 19027 ft 399 kts 328°
2026-05-06 19:51 52.11941 -0.46063 19028 ft 400 kts 328°
2026-05-06 19:52 52.14332 -0.48378 19025 ft 400 kts 328°
2026-05-06 19:52 52.16725 -0.50700 19025 ft 400 kts 328°
2026-05-06 19:52 52.19116 -0.53024 19025 ft 400 kts 328°
2026-05-06 19:52 52.21506 -0.55349 19028 ft 400 kts 328°
2026-05-06 19:53 52.23889 -0.57669 19026 ft 399 kts 328°
2026-05-06 19:53 52.26279 -0.60000 19028 ft 400 kts 328°
2026-05-06 19:53 52.28664 -0.62327 19045 ft 401 kts 328°
2026-05-06 19:53 52.31058 -0.64666 19031 ft 400 kts 328°
2026-05-06 19:54 52.33445 -0.67001 19032 ft 400 kts 328°
2026-05-06 19:54 52.35829 -0.69333 19040 ft 400 kts 328°
2026-05-06 19:54 52.38215 -0.71668 19041 ft 400 kts 328°
2026-05-06 19:54 52.40600 -0.74005 19043 ft 400 kts 328°
2026-05-06 19:55 52.42985 -0.76349 19043 ft 400 kts 328°
2026-05-06 19:55 52.45371 -0.78700 19046 ft 400 kts 328°
2026-05-06 19:55 52.47754 -0.81052 19051 ft 399 kts 328°
2026-05-06 19:55 52.50133 -0.83402 19050 ft 399 kts 328°
2026-05-06 19:56 52.52515 -0.85753 19053 ft 399 kts 328°
2026-05-06 19:56 52.54893 -0.88105 19052 ft 400 kts 328°
2026-05-06 19:56 52.57274 -0.90462 19053 ft 400 kts 328°
2026-05-06 19:56 52.59657 -0.92827 19054 ft 400 kts 328°
2026-05-06 19:57 52.62033 -0.95187 19035 ft 399 kts 327°
2026-05-06 19:57 52.64407 -0.97547 19039 ft 399 kts 327°
2026-05-06 19:57 52.66751 -0.99881 19037 ft 399 kts 328°
2026-05-06 19:57 52.69132 -1.02253 19031 ft 400 kts 328°
2026-05-06 19:58 52.71511 -1.04627 19025 ft 400 kts 328°
2026-05-06 19:58 52.73850 -1.07097 19056 ft 399 kts 322°
2026-05-06 19:58 52.75944 -1.10097 19055 ft 399 kts 315°
2026-05-06 19:58 52.77947 -1.13256 19057 ft 399 kts 315°
2026-05-06 19:59 52.79959 -1.16415 19056 ft 399 kts 315°
2026-05-06 19:59 52.81971 -1.19565 19056 ft 399 kts 315°
2026-05-06 19:59 52.83983 -1.22717 19056 ft 399 kts 315°
2026-05-06 19:59 52.85996 -1.25875 19055 ft 399 kts 315°
2026-05-06 20:00 52.88003 -1.29035 19053 ft 398 kts 315°
2026-05-06 20:00 52.90010 -1.32204 19056 ft 398 kts 315°
2026-05-06 20:00 52.92011 -1.35373 19056 ft 398 kts 315°
2026-05-06 20:00 52.94015 -1.38548 19056 ft 398 kts 315°
2026-05-06 20:01 52.96020 -1.41722 19059 ft 398 kts 315°
2026-05-06 20:01 52.98023 -1.44898 19056 ft 398 kts 315°
2026-05-06 20:01 53.00026 -1.48078 19062 ft 398 kts 315°
2026-05-06 20:01 53.02028 -1.51265 19060 ft 399 kts 315°
2026-05-06 20:02 53.04026 -1.54454 19061 ft 399 kts 315°
2026-05-06 20:02 53.06026 -1.57651 19056 ft 399 kts 315°
2026-05-06 20:02 53.08025 -1.60844 19051 ft 399 kts 315°
2026-05-06 20:02 53.10026 -1.64039 19059 ft 399 kts 315°
2026-05-06 20:03 53.12027 -1.67238 19047 ft 399 kts 315°
2026-05-06 20:03 53.14031 -1.70448 19238 ft 402 kts 315°
2026-05-06 20:03 53.16049 -1.73679 19785 ft 404 kts 315°
2026-05-06 20:03 53.18077 -1.76937 20298 ft 406 kts 315°
2026-05-06 20:04 53.20114 -1.80225 20785 ft 409 kts 315°
2026-05-06 20:04 53.22152 -1.83550 21241 ft 411 kts 313°
2026-05-06 20:04 53.23959 -1.87262 21680 ft 413 kts 303°
2026-05-06 20:04 53.25386 -1.91421 22124 ft 414 kts 296°
2026-05-06 20:05 53.26670 -1.95751 22557 ft 417 kts 296°
2026-05-06 20:05 53.27961 -2.00101 22981 ft 419 kts 296°
2026-05-06 20:05 53.29262 -2.04477 23397 ft 422 kts 296°
2026-05-06 20:05 53.30574 -2.08891 23739 ft 425 kts 296°
2026-05-06 20:06 53.31890 -2.13322 24070 ft 428 kts 296°
2026-05-06 20:06 53.33218 -2.17798 24419 ft 430 kts 296°
2026-05-06 20:06 53.34547 -2.22291 24769 ft 432 kts 296°
2026-05-06 20:06 53.35802 -2.26863 25115 ft 434 kts 291°
2026-05-06 20:07 53.36756 -2.31669 25449 ft 436 kts 288°
2026-05-06 20:07 53.37679 -2.36515 25788 ft 438 kts 288°
2026-05-06 20:07 53.38605 -2.41385 26123 ft 440 kts 288°
2026-05-06 20:07 53.39535 -2.46284 26466 ft 442 kts 288°
2026-05-06 20:08 53.40462 -2.51185 26942 ft 440 kts 288°
2026-05-06 20:08 53.41384 -2.56068 27434 ft 439 kts 289°
2026-05-06 20:08 53.42301 -2.60933 27910 ft 438 kts 289°
2026-05-06 20:08 53.43217 -2.65797 28397 ft 437 kts 289°
2026-05-06 20:09 53.44132 -2.70665 28130 ft 439 kts 289°
2026-05-06 20:09 53.45054 -2.75581 26860 ft 446 kts 288°
2026-05-06 20:09 53.45987 -2.80583 25647 ft 452 kts 288°
2026-05-06 20:09 53.46925 -2.85631 24514 ft 456 kts 288°
2026-05-06 20:10 53.47870 -2.90732 23489 ft 457 kts 287°
2026-05-06 20:10 53.48809 -2.95790 22740 ft 452 kts 287°
2026-05-06 20:10 53.49741 -3.00823 22275 ft 451 kts 287°
2026-05-06 20:10 53.50665 -3.05842 21729 ft 448 kts 287°
2026-05-06 20:11 53.51575 -3.10814 21202 ft 444 kts 287°
2026-05-06 20:11 53.52478 -3.15753 20686 ft 440 kts 287°
2026-05-06 20:11 53.53376 -3.20657 20177 ft 437 kts 287°
2026-05-06 20:11 53.54265 -3.25519 19678 ft 433 kts 287°
2026-05-06 20:12 53.55133 -3.30277 19193 ft 430 kts 286°
2026-05-06 20:12 53.56002 -3.35073 18710 ft 427 kts 286°
2026-05-06 20:12 53.56861 -3.39826 18219 ft 424 kts 286°
2026-05-06 20:12 53.57892 -3.44447 17677 ft 421 kts 294°
2026-05-06 20:13 53.59296 -3.48746 17134 ft 418 kts 302°
2026-05-06 20:13 53.60960 -3.52733 16607 ft 415 kts 304°
2026-05-06 20:13 53.62628 -3.56679 16086 ft 412 kts 304°
2026-05-06 20:13 53.64279 -3.60593 15576 ft 408 kts 304°
2026-05-06 20:14 53.65914 -3.64480 15073 ft 405 kts 304°
2026-05-06 20:14 53.67531 -3.68340 14578 ft 401 kts 304°
2026-05-06 20:14 53.69131 -3.72167 14100 ft 398 kts 304°
2026-05-06 20:14 53.70718 -3.75968 13590 ft 394 kts 304°
2026-05-06 20:15 53.72291 -3.79743 13049 ft 392 kts 304°
2026-05-06 20:15 53.73850 -3.83492 12522 ft 389 kts 304°
2026-05-06 20:15 53.75391 -3.87202 11998 ft 381 kts 304°
2026-05-06 20:15 53.76896 -3.90830 11484 ft 372 kts 304°
2026-05-06 20:16 53.78363 -3.94371 10976 ft 363 kts 304°
2026-05-06 20:16 53.79794 -3.97831 10563 ft 353 kts 304°
2026-05-06 20:16 53.81165 -4.01152 10434 ft 336 kts 303°
2026-05-06 20:16 53.82472 -4.04326 10310 ft 321 kts 303°
2026-05-06 20:17 53.83725 -4.07369 10186 ft 309 kts 303°
2026-05-06 20:17 53.84929 -4.10300 10064 ft 298 kts 303°
2026-05-06 20:17 53.86086 -4.13118 10009 ft 285 kts 303°
2026-05-06 20:17 53.87199 -4.15828 9833 ft 278 kts 303°
2026-05-06 20:18 53.88297 -4.18506 9501 ft 276 kts 303°
2026-05-06 20:18 53.89390 -4.21174 9137 ft 275 kts 303°
2026-05-06 20:18 53.90478 -4.23834 8805 ft 274 kts 303°
2026-05-06 20:18 53.91560 -4.26484 8467 ft 273 kts 303°
2026-05-06 20:19 53.92632 -4.29131 8141 ft 272 kts 303°
2026-05-06 20:19 53.93702 -4.31767 7801 ft 271 kts 302°
2026-05-06 20:19 53.94429 -4.34659 7479 ft 266 kts 277°
2026-05-06 20:19 53.94557 -4.37777 7132 ft 265 kts 270°
2026-05-06 20:20 53.94587 -4.40898 6808 ft 264 kts 269°
2026-05-06 20:20 53.94609 -4.44008 6503 ft 263 kts 269°
2026-05-06 20:20 53.94632 -4.47108 6165 ft 262 kts 269°
2026-05-06 20:20 53.94657 -4.50197 5833 ft 261 kts 269°
2026-05-06 20:21 53.94684 -4.53236 5683 ft 253 kts 269°
2026-05-06 20:21 53.94714 -4.56174 5553 ft 245 kts 269°
2026-05-06 20:21 53.94743 -4.58985 5421 ft 237 kts 269°
2026-05-06 20:21 53.94775 -4.61776 5268 ft 230 kts 269°
2026-05-06 20:22 53.94812 -4.64455 5099 ft 223 kts 269°
2026-05-06 20:22 53.94837 -4.66177 5012 ft 218 kts 269°
2026-05-06 20:22 53.94873 -4.68702 4876 ft 210 kts 269°
2026-05-06 20:22 53.94910 -4.71167 4626 ft 208 kts 269°
2026-05-06 20:23 53.94955 -4.74415 4261 ft 207 kts 269°
2026-05-06 20:23 53.95120 -4.76816 4013 ft 207 kts 291°
2026-05-06 20:23 53.96026 -4.78702 3695 ft 212 kts 328°
2026-05-06 20:23 53.96944 -4.79353 3507 ft 213 kts 342°
2026-05-06 20:24 53.98348 -4.80211 3151 ft 216 kts 335°
2026-05-06 20:24 53.99726 -4.81224 2990 ft 215 kts 334°
2026-05-06 20:24 54.01029 -4.82219 3011 ft 203 kts 335°
2026-05-06 20:24 54.02322 -4.83117 2986 ft 196 kts 347°
2026-05-06 20:25 54.03636 -4.82900 2877 ft 193 kts 26°
2026-05-06 20:25 54.04594 -4.81400 2561 ft 188 kts 61°
2026-05-06 20:25 54.05302 -4.79522 2239 ft 186 kts 59°
2026-05-06 20:25 54.05972 -4.77795 2155 ft 162 kts 59°
2026-05-06 20:26 54.06581 -4.76247 2064 ft 153 kts 62°
2026-05-06 20:26 54.06952 -4.74602 1764 ft 145 kts 79°
2026-05-06 20:26 54.07114 -4.72944 1429 ft 140 kts 85°
2026-05-06 20:26 54.07249 -4.71318 1155 ft 138 kts 85°
2026-05-06 20:27 54.07424 -4.69721 880 ft 137 kts 81°
2026-05-06 20:27 54.07620 -4.68150 668 ft 134 kts 80°
2026-05-06 20:27 54.07820 -4.66617 475 ft 131 kts 78°
2026-05-06 20:27 54.08008 -4.65095 293 ft 131 kts 81°
2026-05-06 20:28 54.08187 -4.63585 102 ft 130 kts 81°
2026-05-06 20:28 54.08346 -4.62233 32 ft 86 kts 78°
2026-05-06 20:28 54.08412 -4.61707 28 ft 22 kts 79°
2026-05-06 20:28 54.08448 -4.61454 24 ft 13 kts 56°
2026-05-06 20:29 54.08525 -4.61489 25 ft 14 kts 295°
2026-05-06 20:29 54.08543 -4.61658 27 ft 15 kts 277°
2026-05-06 20:29 54.08551 -4.61828 31 ft 14 kts 270°
2026-05-06 20:29 54.08539 -4.61994 34 ft 14 kts 258°
2026-05-06 20:30 54.08519 -4.62159 37 ft 14 kts 257°
2026-05-06 20:30 54.08476 -4.62498 38 ft 17 kts 258°
2026-05-06 20:30 54.08450 -4.62710 39 ft 20 kts 258°
2026-05-06 20:31 54.08419 -4.62963 35 ft 23 kts 258°
2026-05-06 20:31 54.08417 -4.63239 39 ft 24 kts 296°
2026-05-06 20:31 54.08480 -4.63346 40 ft 11 kts
2026-05-06 20:31 54.08543 -4.63366 40 ft 9 kts 325°
2026-05-06 20:32 54.08578 -4.63441 40 ft 5 kts 278°
2026-05-06 20:32 54.08569 -4.63483 41 ft 3 kts 233°
2026-05-06 20:32 54.08559 -4.63502 39 ft 0 kts 229°